FW6349 Weather Reports


Display with metric or nautical units.
time (UTC)temp
F
wind
direction
speed
MPH
gust
MPH
rain 1hr
in
rain 24hr
in
rain mn
in
humidity
%
barometer
mb
20240617190017 62 45 4.0 8.0 0.00 1.15 1.15 90 1010.9
20240617185018 61 23 3.0 6.0 0.00 1.15 1.15 90 1011.0
20240617184017 61 315 2.0 5.0 0.00 1.15 1.15 90 1011.3
20240617183057 61 68 3.0 5.0 0.00 1.15 1.15 91 1010.0
20240617182017 60 90 3.0 8.0 0.00 1.15 1.15 90 1010.0
20240617181017 60 45 3.0 6.0 0.00 1.15 1.15 90 1010.2
20240617180017 60 90 2.0 5.0 0.00 1.15 1.15 91 1010.5
20240617175039 60 135 4.0 10.0 0.00 1.15 1.15 91 1010.6
20240617174017 60 158 3.0 8.0 0.00 1.15 1.15 92 1010.6
20240617173019 60 90 2.0 4.0 0.00 1.15 1.15 92 1010.7
20240617172018 59 68 2.0 7.0 0.00 1.15 1.15 94 1010.9
20240617171017 59 90 1.0 5.0 0.00 1.15 1.15 94 1011.0
20240617170017 59 113 2.0 4.0 0.00 1.15 1.15 94 1011.2
20240617165017 58 23 2.0 4.0 0.00 1.15 1.15 94 1011.7
20240617164016 58 293 1.0 3.0 0.00 1.15 1.15 94 1011.7
20240617163018 58 0.0 2.0 0.00 1.15 1.15 94 1011.5
20240617162039 58 293 1.0 3.0 0.00 1.15 1.15 95 1011.5
20240617161017 58 293 2.0 4.0 0.00 1.15 1.15 95 1011.6
20240617160017 58 0.0 2.0 0.00 1.15 1.15 95 1011.1
20240617155017 58 293 1.0 4.0 0.00 1.15 1.15 95 1011.2
20240617154017 58 135 1.0 5.0 0.00 1.15 1.15 95 1010.8
20240617153016 58 90 1.0 3.0 0.01 1.15 1.15 95 1010.4
20240617152037 57 113 2.0 9.0 0.01 1.15 1.15 95 1010.3
20240617151017 57 68 3.0 8.0 0.01 1.15 1.15 95 1009.9
20240617150017 57 68 5.0 13.0 0.01 1.15 1.15 96 1009.5
20240617145019 57 68 2.0 8.0 0.02 1.15 1.15 96 1009.2
20240617144016 57 248 3.0 15.0 0.03 1.15 1.15 95 1009.3
20240617143017 57 90 4.0 10.0 0.03 1.14 1.14 96 1009.2
20240617142016 56 68 3.0 8.0 0.04 1.14 1.14 95 1010.1
20240617141016 56 68 3.0 8.0 0.05 1.14 1.14 95 1010.2
20240617140017 56 68 4.0 9.0 0.06 1.14 1.14 95 1010.6
20240617135038 56 68 3.0 6.0 0.05 1.13 1.13 95 1011.3
20240617134017 56 45 3.0 8.0 0.06 1.12 1.12 95 1011.2
20240617133057 56 68 3.0 9.0 0.07 1.11 1.11 95 1011.2
20240617132018 56 23 4.0 9.0 0.07 1.10 1.10 95 1011.1
20240617131017 56 45 2.0 6.0 0.07 1.09 1.09 95 1011.4
20240617130018 56 23 4.0 9.0 0.09 1.08 1.08 95 1011.1
20240617125016 57 23 5.0 10.0 0.12 1.08 1.08 95 1011.6
20240617124057 56 113 2.0 3.0 0.12 1.06 1.06 95 1012.8
20240617123016 56 135 1.0 3.0 0.12 1.04 1.04 95 1013.1
20240617122016 56 135 2.0 4.0 0.13 1.03 1.03 94 1012.6
20240617121016 56 23 2.0 5.0 0.15 1.02 1.02 94 1013.1
20240617120016 57 23 1.0 3.0 0.14 0.99 0.99 94 1013.4
20240617115016 56 0 3.0 4.0 0.13 0.96 0.96 94 1013.0
20240617114016 56 270 1.0 2.0 0.13 0.94 0.94 94 1013.2
20240617113018 56 0.0 2.0 0.12 0.92 0.92 93 1012.7
20240617112016 56 45 1.0 3.0 0.11 0.90 0.90 93 1012.1
20240617111016 56 23 2.0 4.0 0.12 0.87 0.87 93 1011.9
20240617110036 56 0 2.0 4.0 0.15 0.85 0.85 92 1011.6
20240617105016 56 0.0 2.0 0.32 0.83 0.83 91 1011.8
20240617104016 56 135 1.0 3.0 0.51 0.81 0.81 91 1012.0
20240617103018 57 23 1.0 4.0 0.65 0.80 0.80 90 1011.4
20240617102016 57 23 4.0 10.0 0.77 0.79 0.79 88 1010.7
20240617101016 59 23 4.0 11.0 0.75 0.75 0.75 89 1011.9
20240617100016 60 90 1.0 3.0 0.70 0.70 0.70 88 1011.9
20240617095016 61 90 1.0 2.0 0.51 0.51 0.51 86 1012.8
20240617094016 62 315 2.0 6.0 0.30 0.30 0.30 81 1012.7
20240617093036 66 203 5.0 21.0 0.15 0.15 0.15 76 1011.4
20240617092016 68 45 1.0 3.0 0.02 0.02 0.03 65 1008.3
20240617091016 69 45 3.0 5.0 0.00 0.00 0.00 62 1007.8
20240617090036 69 0.0 2.0 0.00 0.00 0.00 60 1008.0
20240617085036 70 45 2.0 4.0 0.00 0.00 0.00 59 1007.5
20240617084016 70 23 3.0 5.0 0.00 0.00 0.00 59 1007.7
20240617083016 70 23 2.0 4.0 0.00 0.00 0.00 60 1007.6
20240617082040 70 45 2.0 4.0 0.00 0.01 0.00 60 1007.9
20240617081018 70 23 2.0 3.0 0.00 0.01 0.00 60 1007.9
20240617080018 70 23 4.0 9.0 0.00 0.03 0.00 60 1007.8
20240617075020 70 23 3.0 6.0 0.00 0.04 0.00 61 1008.1
20240617074038 71 0 3.0 7.0 0.00 0.05 0.00 61 1008.1
20240617073018 71 0 3.0 6.0 0.00 0.06 0.00 61 1008.1
20240617072018 71 315 2.0 7.0 0.00 0.07 0.00 60 1008.1
20240617071018 71 0 4.0 14.0 0.00 0.10 0.00 60 1008.0
20240617070018 72 23 5.0 9.0 0.00 0.18 0.00 60 1007.8
20240617065018 72 0 6.0 14.0 0.00 0.25 0.00 62 1007.9
20240617064038 72 0 4.0 10.0 0.00 0.27 0.00 64 1008.0
20240617063018 73 0 4.0 11.0 0.00 0.29 0.00 65 1008.1
20240617062038 73 0 5.0 10.0 0.00 0.31 0.00 66 1007.9
20240617061018 73 0 3.0 6.0 0.00 0.32 0.00 66 1008.1
20240617060018 74 0 4.0 10.0 0.00 0.32 0.00 66 1007.7
20240617055019 74 0 4.0 9.0 0.00 0.32 0.00 66 1007.8
20240617054018 74 0 4.0 8.0 0.00 0.33 0.00 68 1008.0
20240617053018 74 0 3.0 9.0 0.00 0.34 0.00 71 1008.2
20240617052018 74 338 4.0 11.0 0.00 0.35 0.00 73 1008.1
20240617051038 75 338 4.0 11.0 0.00 0.36 0.00 74 1008.2
20240617050018 75 338 4.0 9.0 0.00 0.36 0.36 75 1008.0
20240617045016 76 0 4.0 10.0 0.00 0.38 0.36 79 1007.8
20240617044016 76 338 2.0 5.0 0.00 0.38 0.36 82 1007.8
20240617043018 77 0 3.0 7.0 0.00 0.38 0.36 82 1007.7
20240617042038 77 0 3.0 8.0 0.00 0.38 0.36 81 1007.3
20240617041016 77 315 3.0 8.0 0.00 0.38 0.36 82 1007.0
20240617040016 78 293 3.0 8.0 0.00 0.38 0.36 82 1006.9
20240617035016 78 293 1.0 3.0 0.00 0.38 0.36 82 1006.8
20240617034036 78 293 1.0 3.0 0.00 0.38 0.36 81 1006.6
20240617033016 79 293 1.0 2.0 0.00 0.38 0.36 80 1006.4
20240617032016 79 293 1.0 4.0 0.00 0.38 0.36 80 1006.4
20240617031017 79 293 2.0 4.0 0.00 0.38 0.36 80 1006.3
20240617030038 79 315 2.0 4.0 0.00 0.38 0.36 79 1006.1
20240617025016 79 180 2.0 3.0 0.00 0.38 0.36 79 1005.4
20240617024016 80 0.0 3.0 0.00 0.39 0.36 78 1005.4
20240617023036 80 0.0 0.0 0.00 0.41 0.36 76 1005.3
20240617022018 81 0.0 0.0 0.00 0.44 0.36 75 1005.1
20240617021016 81 0.0 0.0 0.00 0.50 0.36 73 1005.1
20240617020018 82 0.0 1.0 0.00 0.52 0.36 72 1005.0
20240617015016 83 0.0 1.0 0.00 0.58 0.36 71 1004.6
20240617014036 83 225 1.0 3.0 0.00 0.59 0.36 69 1004.3
20240617013016 84 0.0 1.0 0.00 0.59 0.36 68 1004.4
20240617012158 84 180 1.0 2.0 0.00 0.59 0.36 68 1004.3
20240617011016 85 180 2.0 6.0 0.00 0.59 0.36 66 1004.3
20240617010016 85 203 1.0 4.0 0.00 0.60 0.36 66 1004.4
20240617005016 86 248 1.0 4.0 0.00 0.64 0.36 65 1004.4
20240617004017 86 248 2.0 4.0 0.00 0.67 0.36 65 1004.4
20240617003018 86 225 2.0 4.0 0.00 0.67 0.36 64 1004.4
20240617002018 86 248 3.0 6.0 0.00 0.67 0.36 63 1004.2
20240617001018 87 248 2.0 6.0 0.00 0.67 0.36 64 1004.3
20240617000018 87 248 3.0 7.0 0.00 0.67 0.36 64 1004.1
20240616235018 87 248 2.0 8.0 0.00 0.67 0.36 65 1003.9
20240616234138 87 225 3.0 11.0 0.00 0.67 0.36 65 1003.7
20240616233018 86 270 4.0 9.0 0.00 0.69 0.36 69 1003.6
20240616232018 86 225 2.0 7.0 0.00 0.70 0.36 71 1003.4
20240616231018 86 203 4.0 10.0 0.00 0.72 0.36 69 1003.3
20240616230020 86 225 3.0 9.0 0.00 0.74 0.36 70 1003.3
20240616225018 86 180 4.0 9.0 0.00 0.76 0.36 70 1003.2
20240616224017 86 203 3.0 9.0 0.00 0.78 0.36 71 1003.1
20240616223018 86 203 4.0 10.0 0.00 0.80 0.36 71 1002.9
20240616222019 86 203 3.0 9.0 0.00 0.86 0.36 70 1002.7
20240616221038 87 203 5.0 13.0 0.00 0.90 0.36 69 1002.7
20240616220018 86 225 3.0 7.0 0.00 0.94 0.36 71 1002.7
20240616215018 86 203 4.0 10.0 0.00 0.98 0.36 69 1002.6
20240616214018 86 180 5.0 10.0 0.00 1.00 0.36 70 1002.6
20240616213017 86 180 5.0 9.0 0.00 1.01 0.36 69 1002.6
20240616212018 87 180 5.0 11.0 0.00 1.04 0.36 69 1002.6
20240616211038 86 180 5.0 13.0 0.00 1.11 0.36 71 1002.7
20240616210038 86 180 6.0 14.0 0.00 1.14 0.36 71 1002.8
20240616205018 85 180 4.0 9.0 0.00 1.16 0.36 72 1002.8
20240616204021 85 180 6.0 10.0 0.00 1.18 0.36 70 1002.9
20240616203038 85 180 6.0 13.0 0.00 1.24 0.36 71 1002.9
20240616202018 85 180 6.0 12.0 0.00 1.31 0.36 71 1002.9
20240616201017 84 248 4.0 10.0 0.00 1.37 0.36 71 1002.8
20240616200039 84 203 5.0 11.0 0.00 1.41 0.36 71 1002.8
20240616195018 84 203 5.0 10.0 0.00 1.44 0.36 72 1002.7
20240616194039 84 180 7.0 14.0 0.00 1.45 0.36 71 1002.7
20240616193017 84 180 5.0 11.0 0.00 1.46 0.36 71 1002.7
20240616192037 84 203 6.0 13.0 0.00 1.46 0.36 71 1002.6
20240616191017 84 180 8.0 18.0 0.00 1.46 0.36 71 1002.7